Location: College Park
(38.9810°N, 76.9370°W)
Time: 03:22:18
(UTC-05:00)

Envisat - Pass Details

Date: 14 February 2018
Orbit: 764 x 766 km, 98.2° (Epoch: 23 February)

Event Time Altitude Azimuth Distance (km) Brightness Sun altitude
Rises 18:13:26 0° 118° (ESE) 3,223 5.8 -6.4°
Reaches altitude 10° 18:16:44 10° 95° (E) 2,301 4.9 -7.0°
Maximum altitude 18:19:25 15° 62° (ENE) 2,001 4.6 -7.5°
Drops below altitude 10° 18:22:07 10° 30° (NNE) 2,308 5.1 -8.0°
Sets 18:25:25 0° 7° (N) 3,239 6.1 -8.7°
